Terug naar catalogus

DELTA 1 DEB

ActiefPO
NORAD 21293·DEBRIS·🇺🇸 United States

Gelanceerd Jun 12, 1975 vanaf Vandenberg Space Force Base

Loading…

Volgende Passages (komende 24 uur)

TLE

VersSource: Space-Track

Epoch: Sep 14, 2026, 06:41 UTC

1 21293U 75052AE  26257.27863969  .00000184  00000-0  69855-3 0  9997
2 21293  99.9214  23.3988 0273036 145.9661 245.9021 12.91791123664688

Volg DELTA 1 DEB in realtime met AllMySat

Download on the App Store